KILMKSUT

Guest
Details From KILM - Wilmington Intl
To KSUT - Brunswick Co
Flight Number -
Tags Generated
Created
Modified
Stats Distance 23 nm / 43 km
Max Altitude 0 ft / 0 m
Waypoints 2
Social Downloads 2
Likes 0
Share VATSIM

Download

Looking for another format? Having issues loading an existing format? Contact us
Advertisement - Login to hide

Notes

Generated

Route

KILM KSUT

ID Type Via Altitude Latitude Longitude Leg Dist Tot Dist Heading (true) Name
O KILM APT - 0 ft / 0 m 34.28120˚ -77.90914˚ - 0 nm - -
O KSUT APT - 0 ft / 0 m 33.92511˚ -78.07932˚ 22 nm 22 nm 202° / 202° -

Altitude Profile

Advertisement - Login to hide

KILM

Details ICAO KILM (ILM)
Name Wilmington Intl
Region United States
Timezone America/New_York (UTC-4.0)
Stats Elevation 32 ft / 10 m (AMSL)
Location 34.270704° -77.902714°
Runways 2
Magnetic Variation 9.457° W

METAR

KILM 260553Z AUTO 18004KT 10SM CLR 22/21 A3001 RMK AO2 SLP163 T02170206 10256 20217 58007

Decode

TAF

KILM 260521Z 2606/2706 19004KT P6SM SCT015 FM260700 19003KT P6SM VCSH SCT010 BKN100 TEMPO 2607/2610 BKN010 FM261300 19011KT P6SM VCSH SCT030 BKN100 FM261900 19012KT P6SM SCT200 FM270000 20010KT P6SM SCT150 FM270400 20006KT P6SM BKN150

Decode

Departure Runways

ID Width Length Bearing (true) Bearing (mag) Surface Threshold Offset Overrun Length
06 200 ft / 61 m 8,017 ft / 2,444 m 48.22° 57.68° Concrete 0 ft / 0 m 931 ft / 284 m
17 150 ft / 46 m 7,018 ft / 2,139 m 159.31° 168.77° Asphalt 0 ft / 0 m 1,000 ft / 305 m
24 200 ft / 61 m 8,017 ft / 2,444 m 228.23° 237.69° Concrete 0 ft / 0 m 0 ft / 0 m
35 150 ft / 46 m 7,018 ft / 2,139 m 339.31° 348.77° Asphalt 0 ft / 0 m 0 ft / 0 m

KSUT

Details ICAO KSUT
Name BRUNSWICK CO
Region United States
Timezone America/New_York (UTC-4.0)
Stats Elevation 25 ft / 8 m (AMSL)
Location 33.929261° -78.074993°
Runways 1
Magnetic Variation 9.296° W

METAR

KSUT 260620Z AUTO 22004KT 10SM SCT016 24/22 A3001 RMK AO2 T02380221

Decode

TAF

Not found

Destination Runways

ID Width Length Bearing (true) Bearing (mag) Surface Threshold Offset Overrun Length
05 100 ft / 30 m 4,004 ft / 1,220 m 40.89° 50.19° Asphalt 0 ft / 0 m 0 ft / 0 m
23 100 ft / 30 m 4,004 ft / 1,220 m 220.90° 230.20° Asphalt 0 ft / 0 m 0 ft / 0 m